contact:dominique.lefevre@mio.osupytheas.fr, maurice.libes@osupytheas.fr, didier.mallarino@osupytheas.fr
Project:EMSO http://www.emso-fr.org/EMSO-France
Depth: 2436.0 m
Title:EMSO Ligure Ouest : Data MII capteur CSTAR
DateTime,Latitude,Longitude,Instrument_Serial,Reference_Counts,Signal_Counts,Corrected_Signal_raw_counts,Calculated_Beam_c_inverse_meters,Internal_thermistor_counts
DateTime,Latitude,Longitude,Instrument_Serial,Reference_Counts,Signal_Counts,Corrected_Signal_raw_counts,Calculated_Beam_c_inverse_meters,Internal_thermistor_counts
2019-08-14T00:00:28,42.805,6.029,CST-1368DR,8318,11638,15425,0.049,551
2019-08-14T00:03:30,42.805,6.029,CST-1368DR,8318,11639,15426,0.049,551
2019-08-14T00:06:31,42.805,6.029,CST-1368DR,8318,11638,15425,0.049,551
2019-08-14T00:09:33,42.805,6.029,CST-1368DR,8318,11622,15404,0.055,551
2019-08-14T00:12:35,42.805,6.029,CST-1368DR,8318,11639,15427,0.049,551
2019-08-14T00:15:36,42.805,6.029,CST-1368DR,8318,11638,15426,0.049,551
2019-08-14T00:18:38,42.805,6.029,CST-1368DR,8318,11639,15426,0.049,551
2019-08-14T00:21:39,42.805,6.029,CST-1368DR,8318,11638,15426,0.049,551
2019-08-14T00:24:41,42.805,6.029,CST-1368DR,8318,11639,15426,0.049,551
2019-08-14T00:27:44,42.805,6.029,CST-1368DR,8318,11639,15426,0.049,551
2019-08-14T00:30:45,42.805,6.029,CST-1368DR,8318,11638,15426,0.049,550
2019-08-14T00:33:47,42.805,6.029,CST-1368DR,8318,11633,15419,0.051,551
2019-08-14T00:36:49,42.805,6.029,CST-1368DR,8318,11639,15427,0.049,551
2019-08-14T00:39:50,42.805,6.029,CST-1368DR,8318,11637,15424,0.049,551
2019-08-14T00:42:52,42.805,6.029,CST-1368DR,8318,11639,15427,0.049,551
2019-08-14T00:45:53,42.805,6.029,CST-1368DR,8318,11639,15426,0.049,551
2019-08-14T00:48:55,42.805,6.029,CST-1368DR,8318,11638,15425,0.049,551
2019-08-14T00:51:57,42.805,6.029,CST-1368DR,8318,11637,15424,0.049,551
2019-08-14T00:54:59,42.805,6.029,CST-1368DR,8318,11639,15426,0.049,550
2019-08-14T00:58:00,42.805,6.029,CST-1368DR,8318,11639,15426,0.049,551
2019-08-14T01:01:02,42.805,6.029,CST-1368DR,8317,11639,15428,0.048,551
2019-08-14T01:04:04,42.805,6.029,CST-1368DR,8317,11639,15428,0.048,551
2019-08-14T01:07:05,42.805,6.029,CST-1368DR,8317,11639,15429,0.048,550
2019-08-14T01:10:07,42.805,6.029,CST-1368DR,8317,11638,15427,0.049,551
2019-08-14T01:13:09,42.805,6.029,CST-1368DR,8317,11637,15426,0.049,550
2019-08-14T01:16:10,42.805,6.029,CST-1368DR,8317,11638,15427,0.049,551
2019-08-14T01:19:12,42.805,6.029,CST-1368DR,8317,11638,15427,0.049,550
2019-08-14T01:22:13,42.805,6.029,CST-1368DR,8317,11639,15428,0.048,551
2019-08-14T01:25:15,42.805,6.029,CST-1368DR,8317,11638,15427,0.049,551
2019-08-14T01:28:17,42.805,6.029,CST-1368DR,8317,11638,15427,0.049,551
2019-08-14T01:31:18,42.805,6.029,CST-1368DR,8317,11637,15426,0.049,551
2019-08-14T01:34:20,42.805,6.029,CST-1368DR,8317,11633,15421,0.050,551
2019-08-14T01:37:22,42.805,6.029,CST-1368DR,8317,11637,15425,0.049,551
2019-08-14T01:40:23,42.805,6.029,CST-1368DR,8317,11636,15424,0.049,551
2019-08-14T01:43:25,42.805,6.029,CST-1368DR,8317,11640,15430,0.048,551
2019-08-14T01:46:27,42.805,6.029,CST-1368DR,8317,11637,15425,0.049,551
2019-08-14T01:49:28,42.805,6.029,CST-1368DR,8317,11638,15427,0.049,551
2019-08-14T01:52:30,42.805,6.029,CST-1368DR,8317,11639,15428,0.048,551
2019-08-14T01:55:31,42.805,6.029,CST-1368DR,8317,11638,15427,0.049,550
2019-08-14T01:58:33,42.805,6.029,CST-1368DR,8317,11637,15426,0.049,551
2019-08-14T02:01:35,42.805,6.029,CST-1368DR,8317,11639,15428,0.048,550
2019-08-14T02:04:36,42.805,6.029,CST-1368DR,8317,11639,15428,0.048,551
2019-08-14T02:07:38,42.805,6.029,CST-1368DR,8317,11638,15427,0.049,551
2019-08-14T02:10:40,42.805,6.029,CST-1368DR,8317,11639,15428,0.048,550
2019-08-14T02:13:41,42.805,6.029,CST-1368DR,8317,11638,15427,0.049,551
2019-08-14T02:16:43,42.805,6.029,CST-1368DR,8317,11638,15426,0.049,551
2019-08-14T02:19:45,42.805,6.029,CST-1368DR,8317,11638,15427,0.049,551
2019-08-14T02:22:46,42.805,6.029,CST-1368DR,8317,11638,15427,0.049,551
2019-08-14T02:25:48,42.805,6.029,CST-1368DR,8317,11637,15426,0.049,551
2019-08-14T02:28:50,42.805,6.029,CST-1368DR,8317,11638,15427,0.049,551
2019-08-14T02:31:51,42.805,6.029,CST-1368DR,8317,11638,15426,0.049,550
2019-08-14T02:34:53,42.805,6.029,CST-1368DR,8317,11639,15428,0.048,550
2019-08-14T02:37:54,42.805,6.029,CST-1368DR,8317,11637,15426,0.049,551
2019-08-14T02:40:56,42.805,6.029,CST-1368DR,8317,11638,15427,0.049,551
2019-08-14T02:43:58,42.805,6.029,CST-1368DR,8317,11637,15426,0.049,551
2019-08-14T02:46:59,42.805,6.029,CST-1368DR,8317,11639,15428,0.048,551
2019-08-14T02:50:01,42.805,6.029,CST-1368DR,8317,11637,15426,0.049,551
2019-08-14T02:53:03,42.805,6.029,CST-1368DR,8317,11637,15425,0.049,551
2019-08-14T02:56:04,42.805,6.029,CST-1368DR,8317,11638,15427,0.049,550
2019-08-14T02:59:06,42.805,6.029,CST-1368DR,8317,11639,15428,0.048,551
2019-08-14T03:02:08,42.805,6.029,CST-1368DR,8317,11638,15427,0.049,551
2019-08-14T03:05:09,42.805,6.029,CST-1368DR,8317,11638,15427,0.049,551
2019-08-14T03:08:11,42.805,6.029,CST-1368DR,8317,11634,15421,0.050,551
2019-08-14T03:11:12,42.805,6.029,CST-1368DR,8317,11637,15425,0.049,551
2019-08-14T03:14:14,42.805,6.029,CST-1368DR,8316,11637,15427,0.049,551
2019-08-14T03:17:16,42.805,6.029,CST-1368DR,8316,11637,15427,0.049,551
2019-08-14T03:20:17,42.805,6.029,CST-1368DR,8316,11635,15424,0.049,551
2019-08-14T03:23:19,42.805,6.029,CST-1368DR,8316,11637,15428,0.048,551
2019-08-14T03:26:21,42.805,6.029,CST-1368DR,8316,11637,15427,0.049,551
2019-08-14T03:29:22,42.805,6.029,CST-1368DR,8316,11637,15427,0.049,551
2019-08-14T03:32:24,42.805,6.029,CST-1368DR,8316,11637,15427,0.049,551
2019-08-14T03:35:25,42.805,6.029,CST-1368DR,8316,11636,15426,0.049,550
2019-08-14T03:38:27,42.805,6.029,CST-1368DR,8316,11635,15425,0.049,550
2019-08-14T03:41:29,42.805,6.029,CST-1368DR,8316,11635,15425,0.049,551
2019-08-14T03:44:30,42.805,6.029,CST-1368DR,8316,11635,15425,0.049,551
2019-08-14T03:47:32,42.805,6.029,CST-1368DR,8316,11634,15423,0.050,551
2019-08-14T03:50:34,42.805,6.029,CST-1368DR,8316,11636,15426,0.049,551
2019-08-14T03:53:35,42.805,6.029,CST-1368DR,8316,11636,15426,0.049,551
2019-08-14T03:56:37,42.805,6.029,CST-1368DR,8316,11635,15425,0.049,550
2019-08-14T03:59:39,42.805,6.029,CST-1368DR,8316,11637,15427,0.049,551
2019-08-14T04:02:40,42.805,6.029,CST-1368DR,8316,11635,15424,0.049,551
2019-08-14T04:05:42,42.805,6.029,CST-1368DR,8316,11637,15427,0.049,551
2019-08-14T04:08:44,42.805,6.029,CST-1368DR,8316,11632,15421,0.050,551
2019-08-14T04:11:45,42.805,6.029,CST-1368DR,8316,11636,15425,0.049,550
2019-08-14T04:14:47,42.805,6.029,CST-1368DR,8316,11637,15427,0.049,551
2019-08-14T04:17:49,42.805,6.029,CST-1368DR,8316,11636,15425,0.049,551
2019-08-14T04:20:50,42.805,6.029,CST-1368DR,8316,11635,15424,0.049,551
2019-08-14T04:23:52,42.805,6.029,CST-1368DR,8316,11637,15427,0.049,551
2019-08-14T04:26:54,42.805,6.029,CST-1368DR,8316,11634,15423,0.050,551
2019-08-14T04:29:55,42.805,6.029,CST-1368DR,8316,11636,15426,0.049,551
2019-08-14T04:32:57,42.805,6.029,CST-1368DR,8316,11635,15424,0.049,551
2019-08-14T04:35:59,42.805,6.029,CST-1368DR,8316,11634,15423,0.050,551
2019-08-14T04:39:00,42.805,6.029,CST-1368DR,8316,11636,15425,0.049,551
2019-08-14T04:42:02,42.805,6.029,CST-1368DR,8316,11635,15425,0.049,550
2019-08-14T04:45:03,42.805,6.029,CST-1368DR,8316,11634,15423,0.050,551
2019-08-14T04:48:05,42.805,6.029,CST-1368DR,8316,11636,15425,0.049,551
2019-08-14T04:51:07,42.805,6.029,CST-1368DR,8316,11634,15423,0.050,551
2019-08-14T04:54:08,42.805,6.029,CST-1368DR,8316,11632,15420,0.051,551
2019-08-14T04:57:10,42.805,6.029,CST-1368DR,8316,11635,15424,0.049,551
2019-08-14T05:00:12,42.805,6.029,CST-1368DR,8316,11635,15424,0.049,551
2019-08-14T05:03:13,42.805,6.029,CST-1368DR,8316,11635,15424,0.049,551
2019-08-14T05:06:15,42.805,6.029,CST-1368DR,8316,11633,15422,0.050,551
2019-08-14T05:09:17,42.805,6.029,CST-1368DR,8316,11636,15425,0.049,551
2019-08-14T05:12:18,42.805,6.029,CST-1368DR,8316,11635,15425,0.049,551
2019-08-14T05:15:20,42.805,6.029,CST-1368DR,8316,11634,15423,0.050,551
2019-08-14T05:18:22,42.805,6.029,CST-1368DR,8316,11636,15425,0.049,551
2019-08-14T05:21:23,42.805,6.029,CST-1368DR,8315,11634,15425,0.049,551
2019-08-14T05:24:25,42.805,6.029,CST-1368DR,8316,11635,15424,0.049,551
2019-08-14T05:27:26,42.805,6.029,CST-1368DR,8316,11635,15424,0.049,550
2019-08-14T05:30:28,42.805,6.029,CST-1368DR,8316,11635,15424,0.049,551
2019-08-14T05:33:30,42.805,6.029,CST-1368DR,8316,11636,15426,0.049,551
2019-08-14T05:36:31,42.805,6.029,CST-1368DR,8316,11635,15425,0.049,551
2019-08-14T05:39:33,42.805,6.029,CST-1368DR,8315,11635,15427,0.049,551
2019-08-14T05:42:35,42.805,6.029,CST-1368DR,8315,11634,15425,0.049,551
2019-08-14T05:45:36,42.805,6.029,CST-1368DR,8315,11636,15427,0.049,551
2019-08-14T05:48:38,42.805,6.029,CST-1368DR,8315,11634,15425,0.049,551
2019-08-14T05:51:40,42.805,6.029,CST-1368DR,8315,11634,15425,0.049,551
2019-08-14T05:54:41,42.805,6.029,CST-1368DR,8315,11631,15421,0.050,550
2019-08-14T05:57:43,42.805,6.029,CST-1368DR,8315,11632,15422,0.050,551
2019-08-14T06:00:45,42.805,6.029,CST-1368DR,8315,11634,15425,0.049,551
2019-08-14T06:03:47,42.805,6.029,CST-1368DR,8315,11632,15423,0.050,551
2019-08-14T06:06:48,42.805,6.029,CST-1368DR,8315,11634,15425,0.049,550
2019-08-14T06:09:50,42.805,6.029,CST-1368DR,8315,11634,15425,0.049,551
2019-08-14T06:12:52,42.805,6.029,CST-1368DR,8315,11633,15423,0.050,551
2019-08-14T06:15:53,42.805,6.029,CST-1368DR,8315,11634,15425,0.049,551
2019-08-14T06:18:55,42.805,6.029,CST-1368DR,8315,11633,15424,0.049,551
2019-08-14T06:21:57,42.805,6.029,CST-1368DR,8315,11634,15425,0.049,551
2019-08-14T06:24:58,42.805,6.029,CST-1368DR,8315,11633,15424,0.049,551
2019-08-14T06:28:00,42.805,6.029,CST-1368DR,8315,11633,15423,0.050,551
2019-08-14T06:31:02,42.805,6.029,CST-1368DR,8315,11634,15425,0.049,550
2019-08-14T06:34:03,42.805,6.029,CST-1368DR,8315,11636,15427,0.049,551
2019-08-14T06:37:05,42.805,6.029,CST-1368DR,8315,11636,15427,0.049,551
2019-08-14T06:40:06,42.805,6.029,CST-1368DR,8315,11635,15427,0.049,551
2019-08-14T06:43:08,42.805,6.029,CST-1368DR,8315,11632,15422,0.050,551
2019-08-14T06:46:10,42.805,6.029,CST-1368DR,8315,11635,15427,0.049,551
2019-08-14T06:49:11,42.805,6.029,CST-1368DR,8315,11635,15426,0.049,551
2019-08-14T06:52:13,42.805,6.029,CST-1368DR,8315,11634,15425,0.049,551
2019-08-14T06:55:15,42.805,6.029,CST-1368DR,8315,11634,15425,0.049,551
2019-08-14T06:58:16,42.805,6.029,CST-1368DR,8315,11634,15425,0.049,551
2019-08-14T07:01:18,42.805,6.029,CST-1368DR,8315,11635,15427,0.049,551
2019-08-14T07:04:20,42.805,6.029,CST-1368DR,8315,11634,15424,0.049,551
2019-08-14T07:07:21,42.805,6.029,CST-1368DR,8315,11634,15425,0.049,551
2019-08-14T07:10:23,42.805,6.029,CST-1368DR,8315,11631,15420,0.051,551
2019-08-14T07:13:24,42.805,6.029,CST-1368DR,8315,11635,15426,0.049,551
2019-08-14T07:16:26,42.805,6.029,CST-1368DR,8315,11634,15424,0.049,551
2019-08-14T07:19:28,42.805,6.029,CST-1368DR,8315,11635,15426,0.049,551
2019-08-14T07:22:29,42.805,6.029,CST-1368DR,8315,11634,15425,0.049,550
2019-08-14T07:25:31,42.805,6.029,CST-1368DR,8315,11636,15428,0.048,551
2019-08-14T07:28:33,42.805,6.029,CST-1368DR,8315,11634,15425,0.049,551
2019-08-14T07:31:34,42.805,6.029,CST-1368DR,8315,11635,15426,0.049,551
2019-08-14T07:34:36,42.805,6.029,CST-1368DR,8315,11632,15423,0.050,551
2019-08-14T07:37:38,42.805,6.029,CST-1368DR,8314,11635,15427,0.049,551
2019-08-14T07:40:39,42.805,6.029,CST-1368DR,8314,11634,15426,0.049,551
2019-08-14T07:43:41,42.805,6.029,CST-1368DR,8314,11634,15427,0.049,550
2019-08-14T07:46:43,42.805,6.029,CST-1368DR,8314,11634,15427,0.049,551
2019-08-14T07:49:44,42.805,6.029,CST-1368DR,8314,11634,15426,0.049,551
2019-08-14T07:52:46,42.805,6.029,CST-1368DR,8314,11614,15400,0.056,550
2019-08-14T07:55:47,42.805,6.029,CST-1368DR,8314,11628,15419,0.051,551
2019-08-14T07:58:49,42.805,6.029,CST-1368DR,8314,11635,15428,0.048,551
2019-08-14T08:01:51,42.805,6.029,CST-1368DR,8314,11633,15425,0.049,550
2019-08-14T08:04:52,42.805,6.029,CST-1368DR,8314,11636,15429,0.048,551
2019-08-14T08:07:54,42.805,6.029,CST-1368DR,8314,11634,15427,0.049,551
2019-08-14T08:10:56,42.805,6.029,CST-1368DR,8314,11633,15425,0.049,551
2019-08-14T08:13:57,42.805,6.029,CST-1368DR,8314,11629,15420,0.051,551
2019-08-14T08:16:59,42.805,6.029,CST-1368DR,8314,11633,15426,0.049,551
2019-08-14T08:20:01,42.805,6.029,CST-1368DR,8314,11636,15429,0.048,551
2019-08-14T08:23:02,42.805,6.029,CST-1368DR,8314,11633,15426,0.049,551
2019-08-14T08:26:04,42.805,6.029,CST-1368DR,8314,11633,15426,0.049,551
2019-08-14T08:29:05,42.805,6.029,CST-1368DR,8314,11632,15424,0.049,551
2019-08-14T08:32:07,42.805,6.029,CST-1368DR,8314,11634,15427,0.049,551
2019-08-14T08:35:09,42.805,6.029,CST-1368DR,8314,11633,15425,0.049,550
2019-08-14T08:38:10,42.805,6.029,CST-1368DR,8314,11634,15426,0.049,550
2019-08-14T08:41:12,42.805,6.029,CST-1368DR,8314,11634,15427,0.049,551
2019-08-14T08:44:14,42.805,6.029,CST-1368DR,8314,11633,15425,0.049,551
2019-08-14T08:47:15,42.805,6.029,CST-1368DR,8314,11634,15426,0.049,551
2019-08-14T08:50:17,42.805,6.029,CST-1368DR,8314,11633,15426,0.049,551
2019-08-14T08:53:19,42.805,6.029,CST-1368DR,8314,11621,15410,0.053,551
2019-08-14T08:56:20,42.805,6.029,CST-1368DR,8314,11633,15425,0.049,551
2019-08-14T08:59:22,42.805,6.029,CST-1368DR,8314,11633,15425,0.049,551
2019-08-14T09:02:24,42.805,6.029,CST-1368DR,8313,11633,15427,0.049,551
2019-08-14T09:05:25,42.805,6.029,CST-1368DR,8314,11634,15426,0.049,551
2019-08-14T09:08:27,42.805,6.029,CST-1368DR,8314,11632,15423,0.050,551
2019-08-14T09:11:28,42.805,6.029,CST-1368DR,8313,11633,15428,0.048,550
2019-08-14T09:14:30,42.805,6.029,CST-1368DR,8313,11634,15429,0.048,551
2019-08-14T09:17:32,42.805,6.029,CST-1368DR,8313,11631,15425,0.049,551
2019-08-14T09:20:33,42.805,6.029,CST-1368DR,8313,11627,15419,0.051,551
2019-08-14T09:23:35,42.805,6.029,CST-1368DR,8313,11628,15421,0.050,551
2019-08-14T09:26:37,42.805,6.029,CST-1368DR,8313,11627,15419,0.051,551
2019-08-14T09:29:38,42.805,6.029,CST-1368DR,8313,11634,15428,0.048,551
2019-08-14T09:32:40,42.805,6.029,CST-1368DR,8313,11630,15423,0.050,551
2019-08-14T09:35:42,42.805,6.029,CST-1368DR,8313,11633,15427,0.049,551
2019-08-14T09:38:43,42.805,6.029,CST-1368DR,8313,11632,15426,0.049,550
2019-08-14T09:41:45,42.805,6.029,CST-1368DR,8313,11631,15425,0.049,551
2019-08-14T09:44:47,42.805,6.029,CST-1368DR,8313,11631,15424,0.049,550
2019-08-14T09:47:48,42.805,6.029,CST-1368DR,8313,11633,15427,0.049,551
2019-08-14T09:50:50,42.805,6.029,CST-1368DR,8313,11632,15426,0.049,550
2019-08-14T09:53:52,42.805,6.029,CST-1368DR,8313,11635,15429,0.048,551
2019-08-14T09:56:53,42.805,6.029,CST-1368DR,8313,11633,15427,0.049,551
2019-08-14T09:59:55,42.805,6.029,CST-1368DR,8313,11634,15428,0.048,551
2019-08-14T10:02:56,42.805,6.029,CST-1368DR,8313,11632,15426,0.049,550
2019-08-14T10:05:58,42.805,6.029,CST-1368DR,8313,11631,15424,0.049,551
2019-08-14T10:09:00,42.805,6.029,CST-1368DR,8312,11629,15424,0.049,551
2019-08-14T10:12:01,42.805,6.029,CST-1368DR,8312,11631,15427,0.049,551
2019-08-14T10:15:03,42.805,6.029,CST-1368DR,8312,11632,15427,0.049,550
2019-08-14T10:18:05,42.805,6.029,CST-1368DR,8312,11630,15425,0.049,551
2019-08-14T10:21:06,42.805,6.029,CST-1368DR,8312,11631,15426,0.049,551
2019-08-14T10:24:08,42.805,6.029,CST-1368DR,8312,11623,15416,0.052,551
2019-08-14T10:27:10,42.805,6.029,CST-1368DR,8312,11633,15429,0.048,550
2019-08-14T10:30:12,42.805,6.029,CST-1368DR,8312,11631,15426,0.049,551
2019-08-14T10:33:13,42.805,6.029,CST-1368DR,8312,11631,15426,0.049,551
2019-08-14T10:36:15,42.805,6.029,CST-1368DR,8312,11631,15426,0.049,551
2019-08-14T10:39:16,42.805,6.029,CST-1368DR,8312,11627,15421,0.050,551
2019-08-14T10:42:18,42.805,6.029,CST-1368DR,8312,11630,15425,0.049,551
2019-08-14T10:45:20,42.805,6.029,CST-1368DR,8312,11628,15423,0.050,551
2019-08-14T10:48:21,42.805,6.029,CST-1368DR,8312,11629,15424,0.049,551
2019-08-14T10:51:23,42.805,6.029,CST-1368DR,8312,11625,15418,0.051,551
2019-08-14T10:54:25,42.805,6.029,CST-1368DR,8312,11631,15426,0.049,551
2019-08-14T10:57:26,42.805,6.029,CST-1368DR,8312,11628,15422,0.050,551
2019-08-14T11:00:28,42.805,6.029,CST-1368DR,8312,11629,15424,0.049,551
2019-08-14T11:03:30,42.805,6.029,CST-1368DR,8312,11632,15427,0.049,551
2019-08-14T11:06:31,42.805,6.029,CST-1368DR,8312,11632,15427,0.049,550
2019-08-14T11:09:33,42.805,6.029,CST-1368DR,8312,11629,15423,0.050,551
2019-08-14T11:12:34,42.805,6.029,CST-1368DR,8312,11630,15425,0.049,550
2019-08-14T11:15:36,42.805,6.029,CST-1368DR,8312,11629,15424,0.049,551
2019-08-14T11:18:38,42.805,6.029,CST-1368DR,8312,11627,15421,0.050,550
2019-08-14T11:21:39,42.805,6.029,CST-1368DR,8312,11618,15409,0.053,550
2019-08-14T11:24:41,42.805,6.029,CST-1368DR,8312,11630,15425,0.049,551
2019-08-14T11:27:43,42.805,6.029,CST-1368DR,8312,11622,15414,0.052,551
2019-08-14T11:30:45,42.805,6.029,CST-1368DR,8312,11630,15425,0.049,551
2019-08-14T11:33:47,42.805,6.029,CST-1368DR,8312,11631,15426,0.049,551
2019-08-14T11:36:48,42.805,6.029,CST-1368DR,8312,11620,15411,0.053,551
2019-08-14T11:39:50,42.805,6.029,CST-1368DR,8312,11628,15422,0.050,551
2019-08-14T11:42:52,42.805,6.029,CST-1368DR,8312,11628,15423,0.050,551
2019-08-14T11:45:53,42.805,6.029,CST-1368DR,8312,11623,15415,0.052,551
2019-08-14T11:48:55,42.805,6.029,CST-1368DR,8312,11628,15422,0.050,551
2019-08-14T11:51:56,42.805,6.029,CST-1368DR,8312,11627,15421,0.050,551
2019-08-14T11:54:58,42.805,6.029,CST-1368DR,8312,11621,15413,0.052,551
2019-08-14T11:58:00,42.805,6.029,CST-1368DR,8312,11630,15425,0.049,551
2019-08-14T12:01:01,42.805,6.029,CST-1368DR,8312,11629,15423,0.050,550
2019-08-14T12:04:03,42.805,6.029,CST-1368DR,8312,11628,15423,0.050,551
2019-08-14T12:07:05,42.805,6.029,CST-1368DR,8312,11628,15423,0.050,551
2019-08-14T12:10:06,42.805,6.029,CST-1368DR,8312,11631,15426,0.049,551
2019-08-14T12:13:08,42.805,6.029,CST-1368DR,8312,11631,15426,0.049,551
2019-08-14T12:16:09,42.805,6.029,CST-1368DR,8312,11627,15421,0.050,551
2019-08-14T12:19:11,42.805,6.029,CST-1368DR,8312,11626,15419,0.051,551
2019-08-14T12:22:13,42.805,6.029,CST-1368DR,8312,11619,15411,0.053,551
2019-08-14T12:25:14,42.805,6.029,CST-1368DR,8312,11629,15423,0.050,551
2019-08-14T12:28:16,42.805,6.029,CST-1368DR,8312,11632,15428,0.048,551
2019-08-14T12:31:18,42.805,6.029,CST-1368DR,8312,11633,15428,0.048,551
2019-08-14T12:34:19,42.805,6.029,CST-1368DR,8312,11632,15428,0.048,551
2019-08-14T12:37:21,42.805,6.029,CST-1368DR,8312,11632,15428,0.048,551
2019-08-14T12:40:23,42.805,6.029,CST-1368DR,8312,11633,15429,0.048,551
2019-08-14T12:43:24,42.805,6.029,CST-1368DR,8312,11632,15428,0.048,551
2019-08-14T12:46:26,42.805,6.029,CST-1368DR,8312,11631,15426,0.049,551
2019-08-14T12:49:28,42.805,6.029,CST-1368DR,8312,11631,15426,0.049,551
2019-08-14T12:52:29,42.805,6.029,CST-1368DR,8312,11626,15420,0.051,550
2019-08-14T12:55:31,42.805,6.029,CST-1368DR,8312,11628,15422,0.050,551
2019-08-14T12:58:33,42.805,6.029,CST-1368DR,8312,11630,15425,0.049,551
2019-08-14T13:01:34,42.805,6.029,CST-1368DR,8312,11628,15422,0.050,550
2019-08-14T13:04:36,42.805,6.029,CST-1368DR,8312,11629,15424,0.049,551
2019-08-14T13:07:37,42.805,6.029,CST-1368DR,8312,11627,15421,0.050,551
2019-08-14T13:10:39,42.805,6.029,CST-1368DR,8312,11629,15423,0.050,551
2019-08-14T13:13:41,42.805,6.029,CST-1368DR,8312,11628,15422,0.050,551
2019-08-14T13:16:42,42.805,6.029,CST-1368DR,8312,11629,15423,0.050,551
2019-08-14T13:19:44,42.805,6.029,CST-1368DR,8312,11629,15424,0.049,550
2019-08-14T13:22:46,42.805,6.029,CST-1368DR,8312,11621,15413,0.052,550
2019-08-14T13:25:48,42.805,6.029,CST-1368DR,8312,11629,15424,0.049,551
2019-08-14T13:28:49,42.805,6.029,CST-1368DR,8312,11628,15423,0.050,551
2019-08-14T13:31:51,42.805,6.029,CST-1368DR,8312,11630,15425,0.049,551
2019-08-14T13:34:53,42.805,6.029,CST-1368DR,8311,11628,15424,0.049,551
2019-08-14T13:37:54,42.805,6.029,CST-1368DR,8312,11629,15423,0.050,551
2019-08-14T13:40:56,42.805,6.029,CST-1368DR,8311,11629,15425,0.049,551
2019-08-14T13:43:57,42.805,6.029,CST-1368DR,8311,11629,15425,0.049,551
2019-08-14T13:46:59,42.805,6.029,CST-1368DR,8311,11629,15425,0.049,551
2019-08-14T13:50:01,42.805,6.029,CST-1368DR,8311,11628,15424,0.049,551
2019-08-14T13:53:02,42.805,6.029,CST-1368DR,8311,11626,15421,0.050,551
2019-08-14T13:56:04,42.805,6.029,CST-1368DR,8311,11627,15423,0.050,551
2019-08-14T13:59:06,42.805,6.029,CST-1368DR,8311,11626,15421,0.050,551
2019-08-14T14:02:07,42.805,6.029,CST-1368DR,8311,11629,15425,0.049,551
2019-08-14T14:05:09,42.805,6.029,CST-1368DR,8311,11629,15426,0.049,551
2019-08-14T14:08:10,42.805,6.029,CST-1368DR,8311,11629,15425,0.049,551
2019-08-14T14:11:12,42.805,6.029,CST-1368DR,8311,11629,15425,0.049,551
2019-08-14T14:14:14,42.805,6.029,CST-1368DR,8311,11628,15424,0.049,550
2019-08-14T14:17:15,42.805,6.029,CST-1368DR,8311,11629,15425,0.049,551
2019-08-14T14:20:17,42.805,6.029,CST-1368DR,8311,11629,15426,0.049,550
2019-08-14T14:23:19,42.805,6.029,CST-1368DR,8311,11629,15426,0.049,551
2019-08-14T14:26:20,42.805,6.029,CST-1368DR,8311,11630,15427,0.049,551
2019-08-14T14:29:22,42.805,6.029,CST-1368DR,8311,11629,15425,0.049,551
2019-08-14T14:32:24,42.805,6.029,CST-1368DR,8311,11629,15425,0.049,551
2019-08-14T14:35:25,42.805,6.029,CST-1368DR,8311,11629,15425,0.049,551
2019-08-14T14:38:27,42.805,6.029,CST-1368DR,8311,11629,15425,0.049,551
2019-08-14T14:41:28,42.805,6.029,CST-1368DR,8311,11627,15422,0.050,551
2019-08-14T14:44:30,42.805,6.029,CST-1368DR,8311,11629,15425,0.049,551
2019-08-14T14:47:32,42.805,6.029,CST-1368DR,8311,11629,15425,0.049,551
2019-08-14T14:50:33,42.805,6.029,CST-1368DR,8311,11629,15426,0.049,551
2019-08-14T14:53:35,42.805,6.029,CST-1368DR,8311,11630,15427,0.049,551
2019-08-14T14:56:37,42.805,6.029,CST-1368DR,8311,11629,15425,0.049,551
2019-08-14T14:59:38,42.805,6.029,CST-1368DR,8311,11629,15426,0.049,551
2019-08-14T15:02:40,42.805,6.029,CST-1368DR,8311,11629,15426,0.049,551
2019-08-14T15:05:42,42.805,6.029,CST-1368DR,8311,11629,15425,0.049,550
2019-08-14T15:08:43,42.805,6.029,CST-1368DR,8311,11629,15426,0.049,551
2019-08-14T15:11:45,42.805,6.029,CST-1368DR,8311,11630,15427,0.049,551
2019-08-14T15:14:47,42.805,6.029,CST-1368DR,8311,11628,15423,0.050,551
2019-08-14T15:17:48,42.805,6.029,CST-1368DR,8311,11628,15424,0.049,551
2019-08-14T15:20:50,42.805,6.029,CST-1368DR,8311,11629,15426,0.049,551
2019-08-14T15:23:52,42.805,6.029,CST-1368DR,8311,11629,15425,0.049,551
2019-08-14T15:26:53,42.805,6.029,CST-1368DR,8311,11629,15425,0.049,551
2019-08-14T15:29:55,42.805,6.029,CST-1368DR,8311,11628,15424,0.049,551
2019-08-14T15:32:56,42.805,6.029,CST-1368DR,8311,11630,15426,0.049,551
2019-08-14T15:35:58,42.805,6.029,CST-1368DR,8311,11630,15426,0.049,551
2019-08-14T15:39:00,42.805,6.029,CST-1368DR,8311,11629,15425,0.049,551
2019-08-14T15:42:01,42.805,6.029,CST-1368DR,8311,11629,15425,0.049,551
2019-08-14T15:45:03,42.805,6.029,CST-1368DR,8311,11630,15427,0.049,551
2019-08-14T15:48:05,42.805,6.029,CST-1368DR,8311,11628,15424,0.049,551
2019-08-14T15:51:06,42.805,6.029,CST-1368DR,8311,11629,15425,0.049,551
2019-08-14T15:54:08,42.805,6.029,CST-1368DR,8311,11626,15421,0.050,551
2019-08-14T15:57:10,42.805,6.029,CST-1368DR,8311,11629,15425,0.049,551
2019-08-14T16:00:11,42.805,6.029,CST-1368DR,8311,11630,15426,0.049,551
2019-08-14T16:03:13,42.805,6.029,CST-1368DR,8311,11628,15424,0.049,550
2019-08-14T16:06:15,42.805,6.029,CST-1368DR,8311,11629,15425,0.049,551
2019-08-14T16:09:16,42.805,6.029,CST-1368DR,8311,11628,15424,0.049,550
2019-08-14T16:12:18,42.805,6.029,CST-1368DR,8311,11628,15424,0.049,550
2019-08-14T16:15:19,42.805,6.029,CST-1368DR,8311,11627,15423,0.050,551
2019-08-14T16:18:21,42.805,6.029,CST-1368DR,8311,11628,15424,0.049,551
2019-08-14T16:21:23,42.805,6.029,CST-1368DR,8310,11628,15426,0.049,551
2019-08-14T16:24:24,42.805,6.029,CST-1368DR,8310,11627,15424,0.049,551
2019-08-14T16:27:26,42.805,6.029,CST-1368DR,8311,11628,15424,0.049,550
2019-08-14T16:30:28,42.805,6.029,CST-1368DR,8310,11629,15427,0.049,551
2019-08-14T16:33:29,42.805,6.029,CST-1368DR,8310,11627,15424,0.049,551
2019-08-14T16:36:31,42.805,6.029,CST-1368DR,8310,11629,15427,0.049,551